This is the latest recevied weather packets stored in our database for station/object DL4MGC-10. If no packets are shown the sender has not sent any weather packets the latest 10 day(s).
| Time | Temp. | Humidity | Pressure | Rain* | Wind** | Luminosity | Snow |
|---|---|---|---|---|---|---|---|
| 1777897467 | 23.33° C | 44% | 1012.6 hPa | - | - | - | - |
| 1777896567 | 25° C | 44% | 1012.7 hPa | - | - | - | - |
| 1777895667 | 25.56° C | 43% | 1012.9 hPa | - | - | - | - |
| 1777894767 | 23.89° C | 44% | 1012.9 hPa | - | - | - | - |
| 1777893867 | 23.33° C | 44% | 1013.1 hPa | - | - | - | - |
| 1777892966 | 23.33° C | 43% | 1013.2 hPa | - | - | - | - |
| 1777892066 | 23.33° C | 43% | 1013.4 hPa | - | - | - | - |
| 1777891166 | 23.89° C | 45% | 1013.5 hPa | - | - | - | - |
| 1777890266 | 23.89° C | 45% | 1013.8 hPa | - | - | - | - |
| 1777889366 | 24.44° C | 45% | 1013.8 hPa | - | - | - | - |
| 1777888466 | 22.78° C | 44% | 1014.1 hPa | - | - | - | - |
| 1777887566 | 22.22° C | 46% | 1014.2 hPa | - | - | - | - |
| 1777886666 | 22.22° C | 45% | 1014.4 hPa | - | - | - | - |
| 1777885766 | 21.67° C | 48% | 1014.6 hPa | - | - | - | - |
| 1777884866 | 22.78° C | 48% | 1014.8 hPa | - | - | - | - |
| 1777883966 | 21.11° C | 51% | 1014.8 hPa | - | - | - | - |
| 1777883066 | 21.67° C | 54% | 1015 hPa | - | - | - | - |
| 1777882165 | 21.11° C | 51% | 1015 hPa | - | - | - | - |
| 1777881265 | 20° C | 56% | 1015.1 hPa | - | - | - | - |
| 1777880365 | 19.44° C | 54% | 1015.1 hPa | - | - | - | - |
| 1777879465 | 20° C | 54% | 1015 hPa | - | - | - | - |
| 1777878565 | 17.78° C | 58% | 1015.1 hPa | - | - | - | - |
| 1777877665 | 17.78° C | 58% | 1015 hPa | - | - | - | - |
| 1777876765 | 17.22° C | 60% | 1015.2 hPa | - | - | - | - |
| 1777875865 | 16.11° C | 65% | 1015.3 hPa | - | - | - | - |
* Rain since midnight (hover to see other rain measurements)
** Current wind speed in m/s (hover to see current wind gust speed)